Weather Service Report


885 
ASUS43 KDTX 112110
RWRMI 
MICHIGAN HOURLY REGIONAL WEATHER ROUNDUP
NATIONAL WEATHER SERVICE DETROIT/PONTIAC MI
400 PM EST THU FEB 11 2016

NOTE: "FAIR" INDICATES FEW OR NO CLOUDS BELOW 12,000 FEET WITH NO
SIGNIFICANT WEATHER AND/OR OBSTRUCTION TO VISIBILITY.

MIZ047>049-052>055-059>063-066>070-074>076-081>083-112200-
SOUTHEAST LOWER MICHIGAN
  
CITY           SKY/WX    TMP DP  RH WIND       PRES   REMARKS
ADRIAN         PTSUNNY   20   5  52 W9        30.23R WCI   9          
ALMA           CLOUDY    22   6  51 W10G20    30.21S WCI  11          
ANN ARBOR      SUNNY     20   5  52 W13       30.21R WCI   7          
BAD AXE        SUNNY     15   3  58 W6        30.20R WCI   7          
CARO           PTSUNNY   18   5  57 W5        30.20S WCI  11          
DETROIT CITY   SUNNY     20   1  43 NW9       30.22R WCI   9          
DETROIT        MOSUNNY   22   3  44 W13       30.23R WCI  10          
FLINT          MOSUNNY   20   3  48 W10       30.21R WCI   9          
GROSSE ILE     SUNNY     21   3  45 W8        30.21S WCI  12          
HILLSDALE      PTSUNNY   20  10  65 W7        30.19S WCI  11          
HOWELL         PTSUNNY   20   4  49 NW8       30.19S WCI  10          

CITY           SKY/WX    TMP DP  RH WIND       PRES   REMARKS
JACKSON        CLOUDY    21   2  43 W12       30.20R WCI   9          
LAMBERTVILLE   CLOUDY    23   5  46 W8        30.24R WCI  14          
LANSING        CLOUDY    22   5  48 NW10      30.21S WCI  11          
LAPEER         PTSUNNY   16   4  59 NW6       30.20R WCI   7          
MASON          MOSUNNY   20   4  50 W9        30.20S WCI   9          
MONROE         PTSUNNY   21   4  48 W9        30.22S WCI  10          
MT. CLEMENS    MOSUNNY   18   2  51 NW9       30.20R WCI   6          
PONTIAC        PTSUNNY   17   3  54 W14G24    30.18S WCI   3          
PORT HOPE        N/A     16   2  54 VRB6      30.19R WCI   7          
PORT HURON     MOSUNNY   16   3  57 NW9       30.22R WCI   4          
TRI CITIES     CLOUDY    20   4  50 SW9       30.20S WCI   9          
MIDLAND        CLOUDY    21   3  47 W8        30.19S WCI  11          
TROY           MOSUNNY   22   3  45 NW10      30.23R WCI  11          
SAGINAW HB     CLOUDY    21   7  53 W7        30.21S WCI  13          
$$
MIZ043>046-050>051-056>058-064>065-071>073-077>080-112200-
SOUTHWEST LOWER MICHIGAN
  
CITY           SKY/WX    TMP DP  RH WIND       PRES   REMARKS
BATTLE CREEK   CLOUDY    21   7  54 W10       30.21F WCI  10          
BENTON HARBOR  LGT SNOW  20  12  71 VRB6      30.26F WCI  12          
BIG RAPIDS     CLOUDY    20   4  50 W12       30.17S WCI   7          
COLDWATER      PTSUNNY   20   7  55 W7        30.22S WCI  12          
FREMONT        CLOUDY    20   6  54 W14       30.21S WCI   7          
HOLLAND        CLOUDY    21   8  57 NW9       30.24S WCI  11          
GRAND RAPIDS   PTSUNNY   21   5  50 W13       30.21S WCI   9          
IONIA          CLOUDY    22   3  45 W13       30.19F WCI  10          
KALAMAZOO      LGT SNOW  20  11  68 W12       30.23S WCI   8          
LUDINGTON      PTSUNNY   18   7  61 W9        30.23S WCI   7          
MARSHALL       CLOUDY    22   5  48 W12       30.21S WCI  10          
MOUNT PLEASANT CLOUDY    22   5  47 W9        30.18S WCI  12          
MUSKEGON       CLOUDY    20   7  57 W8        30.24S WCI  10          
SOUTH HAVEN    CLOUDY    22  11  61 W8        30.25S WCI  12          
$$
MIZ016>042-112200-
NORTHERN LOWER MICHIGAN
  
CITY           SKY/WX    TMP DP  RH WIND       PRES   REMARKS
ALPENA         MOSUNNY   16   0  49 VRB7      30.14F WCI   6          
BEAVER ISLAND  CLOUDY    18   6  58 W15       30.14S WCI   3          
BELLAIRE       CLOUDY    19   6  58 W8        30.17S WCI   9          
CADILLAC       CLOUDY    17   6  62 W10       30.12S WCI   5          
CHARLEVOIX     CLOUDY    18   8  66 W14G22    30.17S HAZE    WCI   4  
FRANKFORT      CLOUDY    19   7  59 W6        30.20S WCI  11          
GRAYLING       CLOUDY    17   4  57 W8        30.12S WCI   6          
HARBOR SPRINGS LGT SNOW  16  11  78 W13G22    30.13S VSB 1   WCI   3  
HOUGHTON LAKE  CLOUDY    16   4  59 W14       30.14R WCI   2          
MANISTEE       PTSUNNY   18   3  53 W8        30.21F WCI   7          
OSCODA         MOSUNNY   17  -2  44 W6        30.16S WCI   8          
PELLSTON       FLURRIES  17   7  64 W9        30.13S WCI   6          
ROGERS CITY    PTSUNNY   16   2  52 W8        30.14S WCI   6          
TRAVERSE CITY  FLURRIES  18   6  59 W12       30.17S WCI   5          
$$
MIZ007>008-015-112200-
EASTERN UPPER MICHIGAN
  
CITY           SKY/WX    TMP DP  RH WIND       PRES   REMARKS
KINROSS        CLOUDY    16   9  73 SW8G17    30.07F WCI   5          
MACKINAC ISLAN LGT SNOW  16  11  82 W20G26    30.10S VSB 1   WCI  -1  
NEWBERRY       PTSUNNY   14   6  69 W20G26    30.09R HAZE    WCI  -3  
S. S. MARIE    LGT SNOW  13   5  70 S8        30.07F WCI   2          
MUNISING         N/A     16   3  56 W8        30.14S WCI   5          
$$
MIZ004>006-011>014-085-112200-
CENTRAL UPPER MICHIGAN
  
CITY           SKY/WX    TMP DP  RH WIND       PRES   REMARKS
MANISTIQUE     CLOUDY    16   2  52 W9G16     30.14S WCI   5          
ESCANABA       PTSUNNY   19   0  42 W10       30.15F WCI   8          
MENOMINEE      SUNNY     19   1  45 SW8       30.17F WCI   9          
SAWYER-GWINN   CLOUDY    14   3  62 NW12      30.10S WCI   0          
$$
MIZ001>003-009>011-084-112200-
WESTERN UPPER MICHIGAN
  
CITY           SKY/WX    TMP DP  RH WIND       PRES   REMARKS
IRON MOUNTAIN  SUNNY     18   1  47 NW9       30.10F WCI   7          
HOUGHTON       LGT SNOW  14   7  73 W16G25    30.07F WCI  -2          
COPPER HARBOR    N/A     16   9  74 NW10G20   30.09F WCI   4          
IRONWOOD       SUNNY     12   0  57 SW10      30.10F WCI  -1          
$$

ABBREVIATIONS USED IN REMARKS
   TC - TEMPERATURE IN CELSIUS
  WCI - WIND CHILL INDEX
   HX - HEAT INDEX
  VSB - VISIBILITY

  

Return to Home page


Western Regional Climate Center, wrcc@dri.edu